Regional Weather Roundup
Issued by NWS Northern Indiana

Home | Current Version | Previous Version | Text Only | Print | Product List | Glossary On
Versions: 1 2 3 4 5 6 7 8 9 10 11 12 13 14 15 16 17 18 19 20 21 22 23 24 25 26 27 28 29 30 31 32 33 34 35 36 37 38 39 40 41 42 43 44 45 46 47 48 49 50
000
ASUS43 KIWX 290810
RWRIWX

KIWX WEATHER ROUNDUP
NATIONAL WEATHER SERVICE NORTHERN INDIANA
300 AM EST MON DEC 29 2014

NOTE: "FAIR" INDICATES FEW OR NO CLOUDS BELOW 12,000 FEET WITH NO
SIGNIFICANT WEATHER AND/OR OBSTRUCTIONS TO VISIBILITY.

* THESE STATIONS ARE NOT UNDER NWS QUALITY CONTROL. THEY ALSO MAY NOT
  REPORT WEATHER SUCH AS PRECIPITATION OR FOG.

INZ001>027-290900-
NORTHERN INDIANA

CITY           SKY/WX    TMP DP  RH WIND       PRES   REMARKS
GARY*          CLEAR     21  17  83 CALM      30.28R
VALPARAISO     CLEAR     24  16  71 W5        30.26R WCI  18
MICHIGAN CITY* FAIR      25  18  74 CALM      30.26R
LAPORTE*       CLEAR     24  20  85 W5        30.26R WCI  18
KNOX*          CLEAR     20  16  84 CALM      30.25R
SOUTH BEND     CLEAR     21  18  88 CALM      30.25R
GOSHEN         CLEAR     22  20  92 CALM      30.23R FOG
MONTICELLO*    CLEAR     21  20  96 CALM      30.26R FOG
LOGANSPORT*    PTCLDY    23  21  93 CALM      30.27R FOG
ROCHESTER*     CLEAR     27  27 100 CALM      30.26R FOG
WARSAW*        CLEAR     21  21 100 CALM      30.24R FOG
ANGOLA*        CLEAR     23  21  93 CALM      30.21S
FORT WAYNE     MOCLDY    23  21  92 SW5       30.25R WCI  17
HUNTINGTON*    PTCLDY    22  18  86 CALM      30.25R FOG
PERU/GRISSOM   PTCLDY    24  24 100 NW3       30.25R
MARION*        PTCLDY    25  24  95 CALM      30.26R FOG

$$
INZ028>050-290900-
CENTRAL INDIANA

CITY           SKY/WX    TMP DP  RH WIND       PRES   REMARKS
LAFAYETTE      CLEAR     20  18  92 CALM      30.27R FOG
KOKOMO*        PTCLDY    23  19  86 NW3       30.25R
MUNCIE*        PTCLDY    23  21  92 CALM      30.24R FOG
INDIANAPOLIS   CLEAR     22  20  92 N5        30.23R WCI  16

$$
MIZ043>046-050>051-056>058-064>065-071>073-077>080-290900-
SOUTHWEST LOWER MICHIGAN

CITY           SKY/WX    TMP DP  RH WIND       PRES   REMARKS
BATTLE CREEK   CLOUDY    30  20  66 N7        30.23R WCI  23
BENTON HARBOR  CLOUDY    28  24  85 CALM      30.25R
COLDWATER*     PTCLDY    23  20  89 MISG      30.22S
HILLSDALE*     PTCLDY    24  21  85 CALM      30.20S
HOLLAND        CLOUDY    31  19  61 N5        30.25R WCI  26
GRAND RAPIDS   CLOUDY    28  19  69 N6        30.24R WCI  22
KALAMAZOO      CLOUDY    27  21  78 N6        30.24R WCI  20
STURGIS*       CLOUDY    25  21  86 CALM      30.23R
THREE RIVERS*  CLOUDY    28  24  85 CALM      30.24R

$$
OHZ001>008-015>018-024>025-290900-
NORTHWEST OHIO

CITY           SKY/WX    TMP DP  RH WIND       PRES   REMARKS
WAUSEON*       FAIR      23  19  86 NW3       30.23S
DEFIANCE       CLEAR     24  20  84 CALM      30.25R FOG
FINDLAY        PTCLDY    26  21  81 NW6       30.23R WCI  19
TOLEDO EXPRESS CLEAR     22  19  89 CALM      30.24R
TOLEDO METCALF PTCLDY    26  20  77 NW5       30.25R WCI  20
LIMA           CLEAR     28  24  85 NW5       30.23R FOG     WCI  23

$$
AND FOR LAKE MICHIGAN COASTAL AND OPEN LAKE BUOY OBSERVATIONS

STATION/POSITION TEMP    WIND        PRES    VSBY  WAVE
                 AIR SEA DIR/SP/G                  HT/PER
                 (F)     (DEG/KT/KT) (MB)    (MI)  (FT/S)
CALUMET HARBOR    27     280/  4/  5 1023.7R
MICHIGAN CITY     33     320/ 11/ 12   N/A
SAINT JOSEPH      30      70/  2/  3 1025.1R

$$
&&


USA.gov is the U.S. government's official web portal to all federal, state and local government web resources and services.